Content
SEND FEEDBACK

Daily
Averages
Monthly
Summary
United States of America

ELIZABETH, NEW JERSEY


Home > North America > United States > New Jersey
Elevation: 1 foot     Latitude: 40 42N     Longitude: 074 10W

WEATHER
 
SELECT A DAY
Number of Records: 189,619;   Date Range: 1/1/95 - 7/27/14
 
SHARE

PRINT THIS DATA

[ ← Previous Day ]
WEATHER ALMANAC - FEBRUARY 22, 2013
[ Next Day → ]
[ °C ]   °F
Weather ElementAverageHighLow
Temperature33 °F39 °F (11:51 pm)23 °F (4:51 am)
Dewpoint22.5 °F32 °F (10:51 pm)14 °F (1:51 am)
Humidity66.1 %79 % (10:51 pm)50 % (12:51 pm)
Barometer30.34 in30.40 in (7:51 am)30.27 in (11:51 pm)
Wind Speed6.4 mph11.5 mph (5:51 am)
Weather ElementAverage
Visibility10 mi
Wind DirectionESE (101.7 °)

Weather ElementTotal
Precipitation---
Heating Degree Days34 (Base 65)
Averaged from 24 records on February 22, 2013
WEATHER CONDITIONS BREAKOUT
WIND DIRECTION BREAKOUT
WEATHER BY HOUR - FEBRUARY 22, 2013
[ °C ]   °F
Local TimeTemperatureDewpointHumidityBarometerVisibilityWind DirectionWind SpeedGust SpeedPrecipitationEventsConditions
1:51 AM25.0 °F14.0 °F63 %30.28 in10.0 miNorth (360°)9.2 mphClear
2:51 AM25.0 °F14.0 °F63 %30.32 in10.0 miNNW (340°)9.2 mphClear
3:51 AM24.1 °F15.1 °F69 %30.32 in10.0 miNorth (10°)8.1 mphOvercast
4:51 AM23.0 °F15.1 °F72 %30.34 in10.0 miNorth (10°)5.8 mphOvercast
5:51 AM26.1 °F17.1 °F69 %30.37 in10.0 miNorth (360°)11.5 mphOvercast
6:51 AM26.1 °F18.0 °F71 %30.39 in10.0 miNorth (10°)8.1 mphOvercast
7:51 AM28.4 °F19.4 °F69 %30.40 in10.0 miNNE (20°)10.4 mphOvercast
8:51 AM28.9 °F19.0 °F67 %30.40 in10.0 miNNE (20°)10.4 mphMostly Cloudy
9:51 AM30.0 °F19.0 °F64 %30.39 in10.0 miNNE (30°)9.2 mphMostly Cloudy
10:51 AM33.8 °F19.4 °F56 %30.40 in10.0 miNE (40°)3.5 mphMostly Cloudy
11:51 AM36.0 °F19.9 °F52 %30.38 in10.0 miENE (60°)3.5 mphOvercast
12:51 PM37.0 °F19.9 °F50 %30.35 in10.0 miVariable3.5 mphOvercast
1:51 PM37.0 °F19.9 °F50 %30.33 in10.0 miEast (80°)4.6 mphOvercast
2:51 PM37.9 °F21.9 °F53 %30.31 in10.0 miVariable5.8 mphOvercast
3:51 PM37.0 °F25.0 °F62 %30.32 in10.0 miSouth (170°)8.1 mphOvercast
4:51 PM36.0 °F26.1 °F67 %30.32 in10.0 miSSE (160°)5.8 mphOvercast
5:51 PM36.0 °F27.0 °F70 %30.33 in9.0 miSE (130°)4.6 mph0.00 inSnowLight Snow
6:51 PM37.0 °F28.0 °F70 %30.32 in10.0 miVariable4.6 mph0.00 inOvercast
7:19 PM37.4 °F28.4 °F70 %30.32 in10.0 miSE (130°)5.8 mphOvercast
7:51 PM37.0 °F30.0 °F76 %30.33 in10.0 miSE (140°)5.8 mphOvercast
8:51 PM37.9 °F30.0 °F73 %30.32 in10.0 miSE (140°)6.9 mphOvercast
9:51 PM37.9 °F30.9 °F76 %30.30 in10.0 miESE (120°)4.6 mphOvercast
10:51 PM37.9 °F32.0 °F79 %30.29 in10.0 miESE (110°)3.5 mphOvercast
11:51 PM39.0 °F32.0 °F76 %30.27 in10.0 miCalmOvercast
Hourly data recorded from KEWR, located miles away from Elizabeth, New Jersey







STORIES FROM OUR PARTNERS